TimeEDT,TemperatureF,Dew PointF,Humidity,Sea Level PressureIn,VisibilityMPH,Wind Direction,Wind SpeedMPH,Gust SpeedMPH,PrecipitationIn,Events,Conditions,WindDirDegrees,DateUTC
12:58 AM,77.0,73.0,88,30.12,10.0,South,3.5,-,N/A,,Mostly Cloudy,170,2013-07-19 04:58:00
1:58 AM,77.0,72.0,84,30.12,10.0,SSW,3.5,-,N/A,,Clear,200,2013-07-19 05:58:00
2:58 AM,75.0,71.1,87,30.10,10.0,Calm,Calm,-,N/A,,Clear,0,2013-07-19 06:58:00
3:58 AM,75.0,71.1,87,30.09,10.0,SW,3.5,-,N/A,,Clear,220,2013-07-19 07:58:00
4:58 AM,75.0,71.1,87,30.10,10.0,SW,3.5,-,N/A,,Clear,220,2013-07-19 08:58:00
5:58 AM,75.0,71.1,87,30.10,10.0,Calm,Calm,-,N/A,,Clear,0,2013-07-19 09:58:00
6:35 AM,73.4,71.6,94,30.10,10.0,Calm,Calm,-,N/A,,Mostly Cloudy,0,2013-07-19 10:35:00
6:45 AM,75.2,71.6,89,30.10,10.0,Calm,Calm,-,N/A,,Mostly Cloudy,0,2013-07-19 10:45:00
6:54 AM,73.4,71.6,94,30.10,10.0,Calm,Calm,-,N/A,,Mostly Cloudy,0,2013-07-19 10:54:00
6:58 AM,75.0,71.1,87,30.10,10.0,Calm,Calm,-,N/A,,Mostly Cloudy,0,2013-07-19 10:58:00
7:58 AM,75.0,72.0,90,30.12,10.0,Calm,Calm,-,N/A,,Scattered Clouds,0,2013-07-19 11:58:00
8:26 AM,75.2,71.6,89,30.14,10.0,SSW,4.6,-,N/A,,Mostly Cloudy,200,2013-07-19 12:26:00
8:34 AM,75.2,71.6,89,30.14,10.0,SSW,4.6,-,N/A,,Scattered Clouds,210,2013-07-19 12:34:00
8:58 AM,75.9,72.0,87,30.15,10.0,SW,3.5,-,N/A,,Partly Cloudy,230,2013-07-19 12:58:00
9:34 AM,78.8,71.6,78,30.15,10.0,South,4.6,-,N/A,,Overcast,180,2013-07-19 13:34:00
9:58 AM,80.1,72.0,76,30.15,10.0,South,6.9,-,N/A,,Mostly Cloudy,190,2013-07-19 13:58:00
10:05 AM,80.6,71.6,74,30.15,10.0,Variable,3.5,-,N/A,,Scattered Clouds,0,2013-07-19 14:05:00
10:58 AM,84.0,72.0,67,30.15,10.0,South,9.2,-,N/A,,Scattered Clouds,180,2013-07-19 14:58:00
11:16 AM,84.2,71.6,66,30.14,10.0,SW,9.2,-,N/A,,Mostly Cloudy,220,2013-07-19 15:16:00
11:29 AM,84.2,71.6,66,30.14,10.0,South,8.1,-,N/A,,Mostly Cloudy,190,2013-07-19 15:29:00
11:41 AM,86.0,71.6,62,30.13,10.0,South,13.8,-,N/A,,Mostly Cloudy,180,2013-07-19 15:41:00
11:52 AM,87.8,71.6,58,30.13,10.0,South,13.8,19.6,N/A,,Scattered Clouds,180,2013-07-19 15:52:00
11:58 AM,87.1,71.1,59,30.13,10.0,South,12.7,19.6,N/A,,Scattered Clouds,180,2013-07-19 15:58:00
12:58 PM,88.0,70.0,55,30.12,10.0,South,11.5,-,N/A,,Mostly Cloudy,180,2013-07-19 16:58:00
1:58 PM,87.1,70.0,57,30.11,10.0,South,11.5,17.3,N/A,,Mostly Cloudy,190,2013-07-19 17:58:00
2:58 PM,89.1,70.0,53,30.09,10.0,South,11.5,-,N/A,,Mostly Cloudy,180,2013-07-19 18:58:00
3:58 PM,86.0,73.9,67,30.08,10.0,SE,15.0,-,N/A,,Scattered Clouds,130,2013-07-19 19:58:00
4:29 PM,80.6,73.4,79,30.07,10.0,SSE,16.1,24.2,0.00,Rain-Thunderstorm,Light Thunderstorms and Rain,150,2013-07-19 20:29:00
4:44 PM,82.4,73.4,74,30.07,10.0,SE,15.0,-,0.00,Rain,Light Rain,140,2013-07-19 20:44:00
4:54 PM,80.6,73.4,79,30.08,10.0,SSE,11.5,-,0.00,Thunderstorm,Mostly Cloudy,150,2013-07-19 20:54:00
4:58 PM,81.0,73.0,77,30.09,10.0,SSE,12.7,-,0.00,Thunderstorm,Mostly Cloudy,150,2013-07-19 20:58:00
5:09 PM,80.6,73.4,79,30.09,3.0,SSE,20.7,29.9,0.14,Rain,Heavy Rain,150,2013-07-19 21:09:00
5:13 PM,77.0,73.4,89,30.10,2.5,ESE,19.6,29.9,0.17,Rain-Thunderstorm,Heavy Thunderstorms and Rain,120,2013-07-19 21:13:00
5:21 PM,75.2,73.4,94,30.11,9.0,SSE,11.5,-,0.17,Rain-Thunderstorm,Light Thunderstorms and Rain,160,2013-07-19 21:21:00
5:46 PM,75.2,71.6,89,30.10,10.0,SSE,3.5,-,0.20,,Mostly Cloudy,150,2013-07-19 21:46:00
5:51 PM,75.2,71.6,89,30.10,5.0,SSE,5.8,-,0.20,Rain-Thunderstorm,Light Rain,150,2013-07-19 21:51:00
5:58 PM,75.9,71.1,85,30.10,5.0,SE,5.8,-,0.20,Rain-Thunderstorm,Light Rain,140,2013-07-19 21:58:00
6:07 PM,75.2,71.6,89,30.10,10.0,SSE,3.5,-,0.00,Rain,Light Rain,150,2013-07-19 22:07:00
6:58 PM,78.1,72.0,81,30.09,10.0,SSW,6.9,-,0.00,Rain,Light Rain,210,2013-07-19 22:58:00
7:58 PM,78.1,72.0,81,30.10,10.0,SW,5.8,-,0.00,Rain,Light Rain,220,2013-07-19 23:58:00
8:58 PM,77.0,73.0,88,30.12,10.0,South,6.9,-,0.00,,Mostly Cloudy,180,2013-07-20 00:58:00
9:58 PM,75.9,72.0,87,30.12,10.0,South,9.2,-,N/A,,Partly Cloudy,180,2013-07-20 01:58:00
10:58 PM,75.0,69.1,82,30.12,10.0,SSW,4.6,-,N/A,,Clear,210,2013-07-20 02:58:00
11:58 PM,73.0,70.0,90,30.12,10.0,Variable,3.5,-,N/A,,Clear,0,2013-07-20 03:58:00